Voltar ao catálogo

THOR ABLESTAR DEB

AtivoLEO
NORAD 48819·DEBRIS·🇺🇸 United States

Lançado Jun 29, 1961 de Cape Canaveral Space Force Station

Loading…

Próximas Passagens (próximas 24 horas)

TLE

AtualizadoSource: Space-Track

Época: Sep 13, 2026, 18:01 UTC

1 48819U 61015MX  26256.75105656  .00000112  00000-0  16134-3 0  9991
2 48819  66.5339 254.2100 0022056  20.6962 339.5001 13.87281784648499

Acompanhe THOR ABLESTAR DEB em tempo real com AllMySat

Download on the App Store